TimeCDT,TemperatureF,Dew PointF,Humidity,Sea Level PressureIn,VisibilityMPH,Wind Direction,Wind SpeedMPH,Gust SpeedMPH,PrecipitationIn,Events,Conditions,WindDirDegrees,DateUTC
12:56 AM,52.0,48.9,89,29.86,-9999.0,Calm,Calm,-,N/A,,Unknown,0,2013-08-20 05:56:00
1:56 AM,51.1,48.9,92,29.86,-9999.0,Calm,Calm,-,N/A,,Unknown,0,2013-08-20 06:56:00
2:56 AM,52.0,50.0,93,29.85,-9999.0,Calm,Calm,-,N/A,,Unknown,0,2013-08-20 07:56:00
3:56 AM,52.0,51.1,97,29.85,-9999.0,Calm,Calm,-,N/A,,Unknown,0,2013-08-20 08:56:00
4:56 AM,54.0,53.1,97,29.85,-9999.0,Calm,Calm,-,N/A,,Unknown,0,2013-08-20 09:56:00
5:56 AM,55.9,54.0,93,29.86,-9999.0,Calm,Calm,-,N/A,,Unknown,0,2013-08-20 10:56:00
6:56 AM,54.0,53.1,97,29.87,-9999.0,Calm,Calm,-,N/A,,Unknown,0,2013-08-20 11:56:00
7:56 AM,57.9,57.0,97,29.89,-9999.0,Calm,Calm,-,N/A,,Unknown,0,2013-08-20 12:56:00
8:56 AM,59.0,57.0,93,29.88,-9999.0,WSW,3.5,-,N/A,,Unknown,240,2013-08-20 13:56:00
9:56 AM,57.0,55.0,93,29.87,-9999.0,SW,4.6,-,N/A,,Unknown,230,2013-08-20 14:56:00
10:56 AM,59.0,57.0,93,29.87,-9999.0,WSW,5.8,-,N/A,,Unknown,240,2013-08-20 15:56:00
11:56 AM,61.0,57.9,90,29.86,-9999.0,WSW,3.5,-,N/A,,Unknown,240,2013-08-20 16:56:00
12:56 PM,60.1,57.9,93,29.86,-9999.0,SW,4.6,-,N/A,,Unknown,230,2013-08-20 17:56:00
1:56 PM,66.0,60.1,81,29.85,-9999.0,SW,3.5,-,N/A,,Unknown,230,2013-08-20 18:56:00
2:56 PM,70.0,62.1,76,29.83,-9999.0,WSW,4.6,-,N/A,,Unknown,250,2013-08-20 19:56:00
3:56 PM,69.1,63.0,81,29.81,-9999.0,Calm,Calm,-,N/A,,Unknown,0,2013-08-20 20:56:00
4:56 PM,69.1,64.0,84,29.80,-9999.0,SW,4.6,-,N/A,,Unknown,230,2013-08-20 21:56:00
5:56 PM,69.1,64.0,84,29.79,-9999.0,WSW,3.5,-,N/A,,Unknown,240,2013-08-20 22:56:00
6:56 PM,66.9,64.0,90,29.79,-9999.0,Calm,Calm,-,N/A,,Unknown,0,2013-08-20 23:56:00
7:56 PM,66.0,63.0,90,29.79,-9999.0,Calm,Calm,-,N/A,,Unknown,0,2013-08-21 00:56:00
8:56 PM,64.9,62.1,90,29.79,-9999.0,Calm,Calm,-,N/A,,Unknown,0,2013-08-21 01:56:00
9:56 PM,63.0,60.1,90,29.80,-9999.0,Calm,Calm,-,N/A,,Unknown,0,2013-08-21 02:56:00
10:56 PM,62.1,60.1,93,29.79,-9999.0,Calm,Calm,-,N/A,,Unknown,0,2013-08-21 03:56:00
11:56 PM,61.0,60.1,97,29.78,-9999.0,Calm,Calm,-,N/A,,Unknown,0,2013-08-21 04:56:00